Tracking 29892 objects as of 21-Nov-2024
HD Live streaming from Space Station
objects crossing your sky now

STARLINK-31815

Track STARLINK-31815 now!
10-day predictions
STARLINK-31815 is classified as:


NORAD ID: 59801
Int'l Code: 2024-093V
Perigee: 449.8 km
Apogee: 452.5 km
Inclination: 43.0 °
Period: 93.5 minutes
Semi major axis: 6822 km
RCS: Unknown
Launch date: May 18, 2024
Source: United States (US)
Launch site: AIR FORCE EASTERN TEST RANGE (AFETR)
Your satellite tracking list
Your tracking list is empty




NASA's NSSDC Master Catalog

Two Line Element Set (TLE):
1 59801U 24093V   24325.48969845 -.00005211  00000-0 -11749-3 0  9996
2 59801  43.0022  18.0953 0002002 274.5615  85.5013 15.40718105 30047
Source of the keplerian elements: AFSPC